| time (UTC) | temp C | wind direction | speed KPH | gust KPH | rain 1hr cm | rain 24hr cm | rain mn cm | humidity % | barometer mb |
| 20260510045343 | 7 | 294 | 0.0 | 0.0 | 0.00 | 0.00 | 0.00 | 95 | 1041.7 |
| 20260510044840 | 7 | 300 | 0.0 | 0.0 | 0.00 | 0.00 | 0.00 | 95 | 1041.3 |
| 20260510044337 | 7 | 301 | 0.0 | 3.2 | 0.00 | 0.00 | 0.00 | 95 | 1041.4 |
| 20260510043834 | 7 | 280 | 0.0 | 0.0 | 0.00 | 0.00 | 0.00 | 95 | 1041.7 |
| 20260510043330 | 8 | 277 | 0.0 | 4.8 | 0.00 | 0.00 | 0.00 | 95 | 1041.7 |
| 20260510042828 | 8 | 239 | 1.6 | 1.6 | 0.00 | 0.00 | 0.00 | 95 | 1041.4 |
| 20260510042324 | 8 | 270 | 0.0 | 3.2 | 0.00 | 0.00 | 0.00 | 95 | 1041.5 |
| 20260510041820 | 8 | 324 | 3.2 | 12.9 | 0.00 | 0.00 | 0.00 | 95 | 1041.3 |
| 20260510041317 | 8 | 284 | 0.0 | 3.2 | 0.00 | 0.00 | 0.00 | 95 | 1041.2 |
| 20260510040815 | 8 | 298 | 1.6 | 3.2 | 0.00 | 0.00 | 0.00 | 95 | 1040.9 |
| 20260510040311 | 8 | 323 | 4.8 | 6.4 | 0.00 | 0.00 | 0.00 | 95 | 1041.1 |
| 20260510035806 | 8 | 323 | 6.4 | 9.7 | 0.00 | 1.35 | 1.35 | 95 | 1040.9 |
| 20260510035306 | 8 | 303 | 3.2 | 4.8 | 0.00 | 1.35 | 1.35 | 95 | 1040.4 |
| 20260510034758 | 8 | 317 | 4.8 | 6.4 | 0.00 | 1.35 | 1.35 | 95 | 1040.7 |
| 20260510034256 | 8 | 305 | 0.0 | 0.0 | 0.00 | 1.35 | 1.35 | 95 | 1040.6 |
| 20260510033752 | 8 | 302 | 3.2 | 4.8 | 0.00 | 1.35 | 1.35 | 95 | 1040.7 |
| 20260510033250 | 8 | 292 | 1.6 | 1.6 | 0.00 | 1.35 | 1.35 | 95 | 1040.9 |
| 20260510032746 | 8 | 294 | 0.0 | 1.6 | 0.00 | 1.35 | 1.35 | 95 | 1040.9 |
| 20260510032242 | 8 | 288 | 0.0 | 3.2 | 0.00 | 1.35 | 1.35 | 95 | 1040.7 |
| 20260510031738 | 8 | 299 | 1.6 | 3.2 | 0.00 | 1.35 | 1.35 | 95 | 1040.7 |
| 20260510031234 | 8 | 298 | 1.6 | 3.2 | 0.00 | 1.35 | 1.35 | 95 | 1040.9 |
| 20260510030733 | 8 | 299 | 3.2 | 3.2 | 0.00 | 1.35 | 1.35 | 95 | 1040.5 |
| 20260510030231 | 8 | 311 | 3.2 | 4.8 | 0.00 | 1.35 | 1.35 | 95 | 1040.7 |
| 20260510025728 | 8 | 297 | 1.6 | 1.6 | 0.00 | 1.35 | 1.35 | 95 | 1040.8 |
| 20260510025226 | 8 | 297 | 1.6 | 3.2 | 0.00 | 1.35 | 1.35 | 95 | 1040.8 |
| 20260510024722 | 9 | 292 | 0.0 | 0.0 | 0.00 | 1.35 | 1.35 | 95 | 1040.6 |
| 20260510024219 | 9 | 295 | 1.6 | 3.2 | 0.00 | 1.35 | 1.35 | 95 | 1040.7 |
| 20260510023714 | 8 | 293 | 1.6 | 3.2 | 0.00 | 1.35 | 1.35 | 95 | 1040.9 |
| 20260510023212 | 8 | 290 | 1.6 | 1.6 | 0.00 | 1.35 | 1.35 | 95 | 1040.8 |
| 20260510022707 | 8 | 286 | 1.6 | 3.2 | 0.00 | 1.35 | 1.35 | 95 | 1040.7 |
| 20260510022156 | 8 | 317 | 3.2 | 4.8 | 0.00 | 1.35 | 1.35 | 95 | 1040.7 |
| 20260510021652 | 9 | 285 | 0.0 | 1.6 | 0.00 | 1.35 | 1.35 | 95 | 1040.6 |
| 20260510021149 | 9 | 248 | 1.6 | 3.2 | 0.00 | 1.35 | 1.35 | 95 | 1040.7 |
| 20260510020644 | 10 | 285 | 0.0 | 0.0 | 0.00 | 1.35 | 1.35 | 94 | 1040.7 |
| 20260510020140 | 10 | 282 | 0.0 | 0.0 | 0.00 | 1.35 | 1.35 | 95 | 1040.9 |
| 20260510015636 | 10 | 283 | 0.0 | 1.6 | 0.00 | 1.35 | 1.35 | 95 | 1040.9 |
| 20260510015133 | 9 | 294 | 1.6 | 3.2 | 0.00 | 1.35 | 1.35 | 94 | 1040.7 |
| 20260510014627 | 9 | 286 | 1.6 | 4.8 | 0.00 | 1.35 | 1.35 | 94 | 1040.8 |
| 20260510014125 | 9 | 300 | 3.2 | 4.8 | 0.00 | 1.35 | 1.35 | 94 | 1040.7 |
| 20260510013619 | 10 | 315 | 4.8 | 4.8 | 0.00 | 1.35 | 1.35 | 94 | 1040.6 |
| 20260510013115 | 10 | 290 | 1.6 | 1.6 | 0.00 | 1.35 | 1.35 | 94 | 1040.4 |
| 20260510012614 | 10 | 282 | 0.0 | 3.2 | 0.00 | 1.35 | 1.35 | 93 | 1040.6 |
| 20260510012111 | 10 | 301 | 3.2 | 3.2 | 0.00 | 1.35 | 1.35 | 93 | 1040.5 |
| 20260510011610 | 10 | 280 | 1.6 | 3.2 | 0.00 | 1.35 | 1.35 | 93 | 1040.5 |
| 20260510011106 | 10 | 281 | 1.6 | 1.6 | 0.00 | 1.35 | 1.35 | 93 | 1040.5 |
| 20260510010603 | 10 | 272 | 1.6 | 1.6 | 0.00 | 1.35 | 1.35 | 93 | 1040.5 |
| 20260510010100 | 10 | 276 | 1.6 | 1.6 | 0.00 | 1.35 | 1.35 | 92 | 1040.3 |
| 20260510005555 | 10 | 287 | 1.6 | 1.6 | 0.00 | 1.35 | 1.35 | 92 | 1040.3 |
| 20260510005054 | 11 | 275 | 0.0 | 1.6 | 0.00 | 1.35 | 1.35 | 91 | 1040.2 |
| 20260510004552 | 11 | 262 | 0.0 | 1.6 | 0.00 | 1.35 | 1.35 | 91 | 1040.5 |
| 20260510004049 | 11 | 250 | 1.6 | 3.2 | 0.00 | 1.35 | 1.35 | 91 | 1040.3 |
| 20260510003545 | 11 | 248 | 1.6 | 3.2 | 0.00 | 1.35 | 1.35 | 90 | 1040.2 |
| 20260510003041 | 11 | 221 | 3.2 | 3.2 | 0.00 | 1.35 | 1.35 | 90 | 1040.1 |
| 20260510002536 | 11 | 235 | 3.2 | 3.2 | 0.00 | 1.35 | 1.35 | 90 | 1040.3 |
| 20260510002034 | 11 | 239 | 1.6 | 3.2 | 0.00 | 1.35 | 1.35 | 90 | 1040.3 |
| 20260510001531 | 11 | 258 | 3.2 | 4.8 | 0.00 | 1.35 | 1.35 | 90 | 1040.2 |
| 20260510001030 | 11 | 257 | 1.6 | 3.2 | 0.00 | 1.35 | 1.35 | 90 | 1040.1 |
| 20260510000530 | 11 | 264 | 3.2 | 6.4 | 0.00 | 1.35 | 1.35 | 91 | 1040.3 |
| 20260510000027 | 11 | 274 | 0.0 | 1.6 | 0.00 | 1.35 | 1.35 | 90 | 1040.1 |
| 20260509235523 | 11 | 269 | 0.0 | 1.6 | 0.00 | 1.35 | 1.35 | 90 | 1040.1 |
| 20260509235021 | 12 | 265 | 0.0 | 3.2 | 0.00 | 1.35 | 1.35 | 89 | 1039.8 |
| 20260509234517 | 12 | 244 | 3.2 | 4.8 | 0.00 | 1.35 | 1.35 | 89 | 1039.7 |
| 20260509234016 | 12 | 210 | 4.8 | 6.4 | 0.00 | 1.35 | 1.35 | 89 | 1039.8 |
| 20260509233513 | 12 | 232 | 1.6 | 6.4 | 0.00 | 1.35 | 1.35 | 89 | 1039.6 |
| 20260509233010 | 12 | 253 | 1.6 | 9.7 | 0.00 | 1.35 | 1.35 | 88 | 1039.6 |
| 20260509232507 | 12 | 262 | 1.6 | 4.8 | 0.00 | 1.35 | 1.35 | 88 | 1039.7 |
| 20260509232003 | 12 | 236 | 3.2 | 4.8 | 0.00 | 1.35 | 1.35 | 88 | 1039.6 |
| 20260509231459 | 12 | 260 | 3.2 | 9.7 | 0.00 | 1.35 | 1.35 | 87 | 1039.7 |
| 20260509230957 | 12 | 267 | 9.7 | 14.5 | 0.00 | 1.35 | 1.35 | 86 | 1039.6 |
| 20260509230454 | 12 | 268 | 4.8 | 11.3 | 0.00 | 1.35 | 1.35 | 87 | 1039.4 |
| 20260509225950 | 12 | 247 | 6.4 | 11.3 | 0.00 | 1.35 | 1.35 | 87 | 1039.5 |
| 20260509225446 | 12 | 233 | 4.8 | 6.4 | 0.00 | 1.35 | 1.35 | 88 | 1039.3 |
| 20260509224942 | 13 | 221 | 8.0 | 11.3 | 0.00 | 1.35 | 1.35 | 88 | 1039.2 |
| 20260509224438 | 12 | 254 | 6.4 | 11.3 | 0.00 | 1.35 | 1.35 | 89 | 1039.3 |
| 20260509223935 | 12 | 257 | 6.4 | 11.3 | 0.00 | 1.35 | 1.35 | 90 | 1039.4 |
| 20260509223431 | 12 | 237 | 4.8 | 6.4 | 0.00 | 1.35 | 1.35 | 90 | 1039.1 |
| 20260509222929 | 12 | 251 | 8.0 | 11.3 | 0.00 | 1.35 | 1.35 | 90 | 1039.4 |
| 20260509222424 | 12 | 261 | 1.6 | 4.8 | 0.00 | 1.35 | 1.35 | 91 | 1039.3 |
| 20260509221920 | 12 | 254 | 3.2 | 9.7 | 0.00 | 1.35 | 1.35 | 91 | 1039.5 |
| 20260509221417 | 12 | 271 | 1.6 | 6.4 | 0.00 | 1.35 | 1.35 | 91 | 1039.6 |
| 20260509220913 | 12 | 255 | 3.2 | 4.8 | 0.00 | 1.35 | 1.35 | 92 | 1039.7 |
| 20260509220409 | 11 | 253 | 4.8 | 9.7 | 0.00 | 1.35 | 1.35 | 93 | 1039.6 |
| 20260509215905 | 11 | 251 | 3.2 | 6.4 | 0.00 | 1.35 | 1.35 | 93 | 1039.8 |
| 20260509215401 | 11 | 251 | 3.2 | 9.7 | 0.00 | 1.35 | 1.35 | 94 | 1039.7 |
| 20260509214858 | 11 | 253 | 3.2 | 6.4 | 0.00 | 1.35 | 1.35 | 94 | 1039.9 |
| 20260509214355 | 11 | 214 | 4.8 | 11.3 | 0.00 | 1.35 | 1.35 | 94 | 1039.9 |
| 20260509213852 | 11 | 223 | 8.0 | 11.3 | 0.00 | 1.35 | 1.35 | 94 | 1040.0 |
| 20260509213347 | 11 | 243 | 3.2 | 11.3 | 0.00 | 1.35 | 1.35 | 94 | 1040.0 |
| 20260509212846 | 11 | 220 | 6.4 | 9.7 | 0.00 | 1.35 | 1.35 | 94 | 1040.2 |
| 20260509212343 | 11 | 229 | 3.2 | 12.9 | 0.00 | 1.35 | 1.35 | 94 | 1040.0 |
| 20260509211839 | 11 | 233 | 3.2 | 6.4 | 0.00 | 1.35 | 1.35 | 95 | 1040.0 |
| 20260509211334 | 11 | 230 | 3.2 | 4.8 | 0.00 | 1.35 | 1.35 | 95 | 1040.2 |
| 20260509210831 | 11 | 240 | 3.2 | 11.3 | 0.00 | 1.35 | 1.35 | 94 | 1040.1 |
| 20260509210329 | 11 | 208 | 1.6 | 4.8 | 0.18 | 1.35 | 1.35 | 94 | 1040.1 |
| 20260509205828 | 11 | 228 | 4.8 | 11.3 | 0.18 | 1.35 | 1.35 | 94 | 1040.2 |
| 20260509205323 | 11 | 256 | 8.0 | 11.3 | 0.13 | 1.32 | 1.32 | 94 | 1040.2 |
| 20260509204820 | 11 | 231 | 6.4 | 9.7 | 0.00 | 1.30 | 1.30 | 94 | 1040.2 |
| 20260509204316 | 11 | 239 | 6.4 | 12.9 | 0.00 | 1.30 | 1.30 | 94 | 1040.1 |
| 20260509203813 | 11 | 243 | 3.2 | 11.3 | 0.00 | 1.30 | 1.30 | 94 | 1040.4 |
| 20260509203310 | 11 | 201 | 8.0 | 11.3 | 0.00 | 1.30 | 1.30 | 94 | 1040.0 |
| 20260509202806 | 11 | 243 | 6.4 | 9.7 | 0.00 | 1.30 | 1.30 | 94 | 1040.1 |
| 20260509202306 | 11 | 221 | 4.8 | 11.3 | 0.00 | 1.30 | 1.30 | 94 | 1040.1 |
| 20260509201801 | 11 | 221 | 8.0 | 12.9 | 0.18 | 1.30 | 1.30 | 94 | 1040.0 |
| 20260509201259 | 11 | 244 | 4.8 | 9.7 | 0.18 | 1.30 | 1.30 | 94 | 1040.2 |
| 20260509200755 | 11 | 207 | 6.4 | 11.3 | 0.00 | 1.27 | 1.27 | 94 | 1040.4 |
| 20260509200250 | 11 | 245 | 1.6 | 6.4 | 0.18 | 1.27 | 1.27 | 94 | 1040.5 |
| 20260509195747 | 10 | 259 | 6.4 | 14.5 | 0.00 | 1.24 | 1.24 | 94 | 1040.6 |
| 20260509195242 | 11 | 200 | 8.0 | 11.3 | 0.13 | 1.24 | 1.24 | 94 | 1040.6 |
| 20260509194736 | 10 | 213 | 9.7 | 12.9 | 0.13 | 1.24 | 1.24 | 95 | 1040.8 |
| 20260509194233 | 10 | 208 | 4.8 | 12.9 | 0.18 | 1.22 | 1.22 | 95 | 1040.7 |
| 20260509193730 | 11 | 236 | 6.4 | 11.3 | 0.18 | 1.22 | 1.22 | 94 | 1040.7 |
| 20260509193229 | 10 | 253 | 9.7 | 12.9 | 0.00 | 1.19 | 1.19 | 94 | 1041.0 |
| 20260509192726 | 10 | 245 | 8.0 | 12.9 | 0.13 | 1.19 | 1.19 | 94 | 1041.1 |
| 20260509192221 | 10 | 247 | 6.4 | 11.3 | 0.00 | 1.17 | 1.17 | 93 | 1040.8 |
| 20260509191716 | 11 | 249 | 6.4 | 11.3 | 0.00 | 1.17 | 1.17 | 93 | 1040.9 |
| 20260509191213 | 10 | 202 | 9.7 | 11.3 | 0.00 | 1.17 | 1.17 | 93 | 1041.0 |
| 20260509190709 | 10 | 239 | 8.0 | 11.3 | 0.18 | 1.17 | 1.17 | 93 | 1041.0 |
| 20260509190207 | 10 | 228 | 9.7 | 11.3 | 0.30 | 1.17 | 1.17 | 92 | 1040.9 |
| 20260509185704 | 10 | 238 | 8.0 | 16.1 | 0.13 | 1.14 | 1.14 | 92 | 1041.0 |
| 20260509185200 | 10 | 247 | 4.8 | 14.5 | 0.18 | 1.12 | 1.12 | 93 | 1041.2 |
| 20260509184658 | 10 | 212 | 11.3 | 24.1 | 0.30 | 1.12 | 1.12 | 92 | 1041.1 |
| 20260509184155 | 10 | 228 | 4.8 | 14.5 | 0.30 | 1.09 | 1.09 | 92 | 1041.3 |
| 20260509183651 | 11 | 203 | 4.8 | 17.7 | 0.18 | 1.07 | 1.07 | 92 | 1040.9 |
| 20260509183146 | 11 | 216 | 12.9 | 17.7 | 0.13 | 1.04 | 1.04 | 93 | 1040.9 |
| 20260509182642 | 11 | 135 | 9.7 | 14.5 | 0.30 | 1.04 | 1.04 | 94 | 1041.2 |
| 20260509182140 | 11 | 264 | 9.7 | 16.1 | 0.30 | 1.02 | 1.02 | 93 | 1041.0 |
| 20260509181638 | 11 | 218 | 9.7 | 14.5 | 0.13 | 0.99 | 0.99 | 93 | 1040.9 |
| 20260509181135 | 11 | 211 | 6.4 | 12.9 | 0.18 | 0.97 | 0.97 | 93 | 1041.0 |
| 20260509180631 | 11 | 218 | 9.7 | 16.1 | 0.18 | 0.97 | 0.97 | 93 | 1041.0 |
| 20260509180128 | 11 | 202 | 8.0 | 16.1 | 0.00 | 0.94 | 0.94 | 93 | 1041.2 |
| 20260509175623 | 11 | 195 | 9.7 | 16.1 | 0.18 | 0.94 | 0.94 | 93 | 1041.1 |
| 20260509175121 | 11 | 204 | 12.9 | 20.9 | 0.30 | 0.94 | 0.94 | 93 | 1040.9 |
| 20260509174617 | 11 | 218 | 9.7 | 14.5 | 0.13 | 0.91 | 0.91 | 94 | 1041.2 |
| 20260509174112 | 11 | 235 | 4.8 | 17.7 | 0.00 | 0.89 | 0.89 | 94 | 1041.0 |
| 20260509173608 | 11 | 236 | 6.4 | 16.1 | 0.00 | 0.89 | 0.89 | 94 | 1041.1 |
| 20260509173104 | 11 | 254 | 6.4 | 11.3 | 0.00 | 0.89 | 0.89 | 94 | 1040.9 |
| 20260509172601 | 11 | 197 | 6.4 | 11.3 | 0.18 | 0.89 | 0.89 | 94 | 1040.9 |
| 20260509172056 | 11 | 212 | 6.4 | 9.7 | 0.18 | 0.89 | 0.89 | 95 | 1041.0 |
| 20260509171552 | 11 | 235 | 6.4 | 9.7 | 0.00 | 0.86 | 0.86 | 94 | 1041.1 |
| 20260509171049 | 11 | 214 | 6.4 | 9.7 | 0.13 | 0.86 | 0.86 | 95 | 1041.2 |
| 20260509170545 | 10 | 244 | 3.2 | 9.7 | 0.30 | 0.86 | 0.86 | 95 | 1041.0 |
| 20260509170041 | 11 | 262 | 1.6 | 6.4 | 0.30 | 0.84 | 0.84 | 95 | 1041.1 |
| 20260509165540 | 10 | 238 | 3.2 | 4.8 | 0.30 | 0.81 | 0.81 | 95 | 1040.8 |
| 20260509165035 | 10 | 254 | 8.0 | 9.7 | 0.48 | 0.79 | 0.79 | 95 | 1041.0 |
| 20260509164532 | 10 | 223 | 6.4 | 6.4 | 0.30 | 0.74 | 0.74 | 94 | 1041.2 |
| 20260509164027 | 10 | 248 | 3.2 | 6.4 | 0.43 | 0.71 | 0.71 | 93 | 1041.2 |
| 20260509163526 | 11 | 245 | 3.2 | 6.4 | 0.30 | 0.66 | 0.66 | 93 | 1041.1 |
| 20260509163020 | 11 | 250 | 3.2 | 4.8 | 0.18 | 0.64 | 0.64 | 93 | 1041.2 |
| 20260509162518 | 11 | 247 | 3.2 | 4.8 | 0.18 | 0.61 | 0.61 | 92 | 1041.2 |
| 20260509162014 | 11 | 255 | 3.2 | 3.2 | 0.00 | 0.58 | 0.58 | 92 | 1041.0 |
| 20260509161510 | 11 | 259 | 3.2 | 3.2 | 0.00 | 0.58 | 0.58 | 92 | 1041.1 |
| 20260509161005 | 11 | 251 | 1.6 | 4.8 | 0.00 | 0.58 | 0.58 | 92 | 1041.0 |
| 20260509160501 | 11 | 262 | 3.2 | 3.2 | 0.13 | 0.58 | 0.58 | 91 | 1041.2 |
| 20260509155956 | 11 | 254 | 1.6 | 4.8 | 0.13 | 0.58 | 0.58 | 92 | 1041.2 |
| 20260509155453 | 11 | 254 | 1.6 | 3.2 | 0.00 | 0.56 | 0.56 | 91 | 1041.2 |
| 20260509154949 | 11 | 258 | 0.0 | 3.2 | 0.00 | 0.56 | 0.56 | 92 | 1041.4 |
| 20260509154445 | 11 | 255 | 1.6 | 1.6 | 0.00 | 0.56 | 0.56 | 92 | 1041.3 |
| 20260509153943 | 11 | 268 | 0.0 | 3.2 | 0.00 | 0.56 | 0.56 | 92 | 1041.2 |
| 20260509153440 | 11 | 277 | 1.6 | 3.2 | 0.18 | 0.56 | 0.56 | 92 | 1041.3 |
| 20260509152937 | 10 | 266 | 0.0 | 1.6 | 0.18 | 0.56 | 0.56 | 92 | 1041.7 |
| 20260509152433 | 10 | 266 | 0.0 | 1.6 | 0.00 | 0.53 | 0.53 | 92 | 1041.5 |
| 20260509151930 | 10 | 264 | 0.0 | 0.0 | 0.00 | 0.53 | 0.53 | 92 | 1041.8 |
| 20260509151426 | 10 | 261 | 3.2 | 3.2 | 0.13 | 0.53 | 0.53 | 92 | 1041.8 |
| 20260509150924 | 10 | 261 | 0.0 | 0.0 | 0.13 | 0.53 | 0.53 | 93 | 1041.8 |
| 20260509150421 | 10 | 262 | 1.6 | 3.2 | 0.00 | 0.51 | 0.51 | 93 | 1041.4 |
| 20260509145919 | 11 | 253 | 1.6 | 3.2 | 0.00 | 0.51 | 0.51 | 93 | 1041.9 |
| 20260509145414 | 10 | 256 | 0.0 | 1.6 | 0.00 | 0.51 | 0.51 | 93 | 1042.0 |
| 20260509144910 | 10 | 262 | 0.0 | 3.2 | 0.18 | 0.51 | 0.51 | 93 | 1042.0 |
| 20260509144407 | 10 | 262 | 1.6 | 3.2 | 0.00 | 0.48 | 0.48 | 93 | 1042.1 |
| 20260509143904 | 10 | 266 | 0.0 | 1.6 | 0.00 | 0.48 | 0.48 | 93 | 1042.1 |
| 20260509143401 | 10 | 267 | 1.6 | 1.6 | 0.13 | 0.48 | 0.48 | 94 | 1041.9 |
| 20260509142857 | 10 | 274 | 1.6 | 3.2 | 0.13 | 0.48 | 0.48 | 94 | 1042.1 |
| 20260509142354 | 10 | 283 | 0.0 | 0.0 | 0.00 | 0.46 | 0.46 | 94 | 1042.2 |
| 20260509141849 | 10 | 279 | 0.0 | 1.6 | 0.18 | 0.46 | 0.46 | 94 | 1042.2 |
| 20260509141347 | 10 | 290 | 0.0 | 0.0 | 0.18 | 0.46 | 0.46 | 94 | 1041.9 |
| 20260509140843 | 10 | 288 | 0.0 | 1.6 | 0.13 | 0.43 | 0.43 | 94 | 1041.9 |
| 20260509140340 | 10 | 295 | 1.6 | 1.6 | 0.13 | 0.43 | 0.43 | 94 | 1041.9 |
| 20260509135838 | 10 | 295 | 0.0 | 0.0 | 0.00 | 0.41 | 0.41 | 94 | 1041.9 |
| 20260509135335 | 10 | 295 | 0.0 | 1.6 | 0.18 | 0.41 | 0.41 | 94 | 1041.8 |
| 20260509134832 | 10 | 295 | 1.6 | 1.6 | 0.18 | 0.41 | 0.41 | 94 | 1041.7 |
| 20260509134329 | 10 | 282 | 0.0 | 1.6 | 0.13 | 0.38 | 0.38 | 94 | 1041.8 |
| 20260509133826 | 10 | 307 | 1.6 | 4.8 | 0.13 | 0.38 | 0.38 | 94 | 1041.4 |
| 20260509133323 | 10 | 308 | 1.6 | 1.6 | 0.00 | 0.36 | 0.36 | 94 | 1041.7 |
| 20260509132822 | 10 | 314 | 1.6 | 6.4 | 0.18 | 0.36 | 0.36 | 94 | 1041.3 |
| 20260509132320 | 10 | 311 | 4.8 | 6.4 | 0.18 | 0.36 | 0.36 | 94 | 1041.3 |
| 20260509131816 | 10 | 317 | 3.2 | 3.2 | 0.18 | 0.33 | 0.33 | 94 | 1041.5 |
| 20260509131313 | 10 | 307 | 0.0 | 3.2 | 0.18 | 0.33 | 0.33 | 94 | 1041.4 |
| 20260509130810 | 10 | 301 | 0.0 | 0.0 | 0.13 | 0.30 | 0.30 | 94 | 1041.4 |
| 20260509130305 | 10 | 302 | 1.6 | 4.8 | 0.13 | 0.30 | 0.30 | 94 | 1041.7 |
| 20260509125802 | 10 | 296 | 0.0 | 3.2 | 0.18 | 0.28 | 0.28 | 94 | 1041.3 |
| 20260509125259 | 10 | 303 | 3.2 | 3.2 | 0.18 | 0.28 | 0.28 | 94 | 1041.4 |
| 20260509124755 | 10 | 309 | 3.2 | 4.8 | 0.00 | 0.25 | 0.25 | 94 | 1041.5 |
| 20260509124252 | 10 | 304 | 3.2 | 4.8 | 0.13 | 0.25 | 0.25 | 94 | 1041.5 |
| 20260509123750 | 10 | 288 | 0.0 | 0.0 | 0.13 | 0.25 | 0.25 | 94 | 1041.7 |
| 20260509123247 | 10 | 291 | 0.0 | 0.0 | 0.00 | 0.23 | 0.23 | 94 | 1041.5 |
| 20260509122743 | 9 | 295 | 0.0 | 0.0 | 0.00 | 0.23 | 0.23 | 95 | 1041.4 |
| 20260509122240 | 9 | 296 | 0.0 | 0.0 | 0.00 | 0.23 | 0.23 | 95 | 1041.5 |
| 20260509121737 | 9 | 286 | 1.6 | 3.2 | 0.00 | 0.23 | 0.23 | 95 | 1041.5 |
| 20260509121234 | 9 | 293 | 1.6 | 3.2 | 0.00 | 0.23 | 0.23 | 95 | 1041.5 |
| 20260509120732 | 9 | 290 | 0.0 | 0.0 | 0.00 | 0.23 | 0.23 | 95 | 1041.5 |
| 20260509120229 | 9 | 264 | 0.0 | 0.0 | 0.00 | 0.23 | 0.23 | 95 | 1041.8 |
| 20260509115727 | 8 | 264 | 0.0 | 3.2 | 0.00 | 0.23 | 0.23 | 95 | 1041.4 |
| 20260509115224 | 8 | 346 | 1.6 | 3.2 | 0.00 | 0.23 | 0.23 | 95 | 1041.8 |
| 20260509114722 | 8 | 329 | 1.6 | 6.4 | 0.00 | 0.23 | 0.23 | 95 | 1041.5 |
| 20260509114221 | 8 | 323 | 4.8 | 9.7 | 0.00 | 0.23 | 0.23 | 95 | 1041.5 |
| 20260509113719 | 8 | 317 | 1.6 | 4.8 | 0.00 | 0.23 | 0.23 | 95 | 1041.7 |
| 20260509113216 | 8 | 292 | 0.0 | 1.6 | 0.00 | 0.23 | 0.23 | 95 | 1041.8 |
| 20260509112713 | 8 | 303 | 3.2 | 4.8 | 0.00 | 0.23 | 0.23 | 95 | 1041.8 |
| 20260509112210 | 8 | 316 | 3.2 | 6.4 | 0.00 | 0.23 | 0.23 | 95 | 1041.8 |
| 20260509111707 | 8 | 307 | 3.2 | 4.8 | 0.00 | 0.23 | 0.23 | 95 | 1041.7 |
| 20260509111204 | 8 | 339 | 6.4 | 6.4 | 0.00 | 0.23 | 0.23 | 95 | 1041.9 |
| 20260509110701 | 8 | 331 | 6.4 | 11.3 | 0.00 | 0.23 | 0.23 | 95 | 1041.5 |
| 20260509110157 | 7 | 333 | 11.3 | 16.1 | 0.00 | 0.23 | 0.23 | 95 | 1041.8 |
| 20260509105656 | 7 | 344 | 8.0 | 12.9 | 0.00 | 0.23 | 0.23 | 95 | 1041.8 |
| 20260509105153 | 7 | 325 | 6.4 | 12.9 | 0.00 | 0.23 | 0.23 | 95 | 1041.7 |
| 20260509104650 | 7 | 325 | 6.4 | 6.4 | 0.00 | 0.23 | 0.23 | 95 | 1041.9 |
| 20260509104147 | 8 | 351 | 1.6 | 3.2 | 0.00 | 0.23 | 0.23 | 95 | 1041.9 |
| 20260509103645 | 7 | 345 | 3.2 | 4.8 | 0.00 | 0.23 | 0.23 | 95 | 1042.0 |
| 20260509103142 | 8 | 42 | 3.2 | 4.8 | 0.00 | 0.23 | 0.23 | 95 | 1042.0 |
| 20260509102640 | 8 | 329 | 3.2 | 3.2 | 0.00 | 0.23 | 0.23 | 95 | 1042.1 |
| 20260509102137 | 8 | 309 | 0.0 | 3.2 | 0.00 | 0.23 | 0.23 | 95 | 1042.1 |
| 20260509101633 | 8 | 314 | 6.4 | 6.4 | 0.00 | 0.23 | 0.23 | 95 | 1042.4 |
| 20260509101130 | 8 | 320 | 6.4 | 6.4 | 0.00 | 0.23 | 0.23 | 95 | 1042.1 |
| 20260509100627 | 8 | 304 | 3.2 | 6.4 | 0.00 | 0.23 | 0.23 | 95 | 1042.0 |
| 20260509100124 | 8 | 298 | 1.6 | 4.8 | 0.00 | 0.23 | 0.23 | 95 | 1042.0 |
| 20260509095620 | 8 | 298 | 4.8 | 9.7 | 0.00 | 0.23 | 0.23 | 95 | 1042.2 |
| 20260509095118 | 7 | 320 | 6.4 | 9.7 | 0.00 | 0.23 | 0.23 | 95 | 1042.2 |
| 20260509094614 | 7 | 319 | 4.8 | 6.4 | 0.00 | 0.23 | 0.23 | 95 | 1041.8 |
| 20260509094111 | 7 | 323 | 3.2 | 3.2 | 0.00 | 0.23 | 0.23 | 95 | 1042.1 |
| 20260509093610 | 7 | 337 | 3.2 | 4.8 | 0.00 | 0.23 | 0.23 | 95 | 1042.0 |
| 20260509093106 | 7 | 354 | 4.8 | 6.4 | 0.00 | 0.23 | 0.23 | 95 | 1042.2 |
| 20260509092604 | 7 | 317 | 6.4 | 9.7 | 0.00 | 0.23 | 0.23 | 95 | 1042.3 |
| 20260509092103 | 7 | 319 | 4.8 | 4.8 | 0.00 | 0.23 | 0.23 | 95 | 1042.0 |
| 20260509091600 | 7 | 297 | 0.0 | 0.0 | 0.00 | 0.23 | 0.23 | 95 | 1042.2 |
| 20260509091056 | 7 | 297 | 0.0 | 0.0 | 0.00 | 0.23 | 0.23 | 95 | 1042.3 |
| 20260509090554 | 7 | 297 | 0.0 | 0.0 | 0.00 | 0.23 | 0.23 | 95 | 1042.2 |
| 20260509090052 | 7 | 299 | 1.6 | 1.6 | 0.00 | 0.23 | 0.23 | 95 | 1042.3 |
| 20260509085548 | 7 | 300 | 0.0 | 0.0 | 0.00 | 0.23 | 0.23 | 95 | 1042.6 |
| 20260509085044 | 7 | 291 | 0.0 | 0.0 | 0.00 | 0.23 | 0.23 | 95 | 1042.7 |
| 20260509084542 | 7 | 291 | 0.0 | 0.0 | 0.00 | 0.23 | 0.23 | 95 | 1042.9 |
| 20260509084039 | 7 | 291 | 0.0 | 0.0 | 0.00 | 0.23 | 0.23 | 95 | 1042.8 |
| 20260509083536 | 7 | 291 | 1.6 | 3.2 | 0.18 | 0.23 | 0.23 | 95 | 1042.6 |
| 20260509083032 | 7 | 299 | 1.6 | 3.2 | 0.18 | 0.23 | 0.23 | 95 | 1042.7 |
| 20260509082530 | 7 | 299 | 0.0 | 3.2 | 0.00 | 0.20 | 0.20 | 95 | 1042.7 |
| 20260509082027 | 7 | 299 | 0.0 | 1.6 | 0.00 | 0.20 | 0.20 | 95 | 1042.8 |
| 20260509081524 | 7 | 319 | 4.8 | 4.8 | 0.00 | 0.20 | 0.20 | 95 | 1042.8 |
| 20260509081021 | 7 | 313 | 4.8 | 4.8 | 0.00 | 0.20 | 0.20 | 95 | 1042.5 |
| 20260509080519 | 7 | 302 | 4.8 | 4.8 | 0.00 | 0.20 | 0.20 | 95 | 1042.6 |
| 20260509080017 | 7 | 281 | 0.0 | 0.0 | 0.00 | 0.20 | 0.20 | 95 | 1042.6 |
| 20260509075514 | 7 | 281 | 0.0 | 0.0 | 0.00 | 0.20 | 0.20 | 95 | 1042.6 |
| 20260509075012 | 7 | 281 | 0.0 | 0.0 | 0.00 | 0.20 | 0.20 | 95 | 1042.4 |
| 20260509074509 | 8 | 281 | 0.0 | 3.2 | 0.00 | 0.20 | 0.20 | 95 | 1042.5 |
| 20260509074005 | 8 | 302 | 1.6 | 3.2 | 0.00 | 0.20 | 0.20 | 95 | 1042.3 |
| 20260509073502 | 8 | 306 | 1.6 | 4.8 | 0.13 | 0.20 | 0.20 | 95 | 1042.5 |
| 20260509072958 | 8 | 292 | 1.6 | 4.8 | 0.13 | 0.20 | 0.20 | 95 | 1042.3 |
| 20260509072455 | 7 | 307 | 3.2 | 4.8 | 0.18 | 0.18 | 0.18 | 95 | 1042.7 |
| 20260509071952 | 7 | 273 | 0.0 | 0.0 | 0.18 | 0.18 | 0.18 | 95 | 1042.5 |
| 20260509071448 | 7 | 272 | 0.0 | 0.0 | 0.00 | 0.15 | 0.15 | 95 | 1042.8 |
| 20260509070946 | 7 | 272 | 0.0 | 0.0 | 0.00 | 0.15 | 0.15 | 95 | 1042.6 |
| 20260509070443 | 7 | 291 | 0.0 | 0.0 | 0.00 | 0.15 | 0.15 | 95 | 1042.7 |
| 20260509065938 | 7 | 295 | 0.0 | 1.6 | 0.13 | 0.15 | 0.15 | 95 | 1042.6 |
| 20260509065434 | 8 | 262 | 1.6 | 1.6 | 0.13 | 0.15 | 0.15 | 94 | 1042.9 |
| 20260509064931 | 8 | 283 | 1.6 | 1.6 | 0.00 | 0.13 | 0.13 | 94 | 1042.8 |
| 20260509064429 | 7 | 285 | 1.6 | 3.2 | 0.00 | 0.13 | 0.13 | 94 | 1042.9 |
| 20260509063927 | 7 | 271 | 0.0 | 0.0 | 0.18 | 0.13 | 0.13 | 94 | 1043.3 |
| 20260509063422 | 7 | 271 | 0.0 | 0.0 | 0.18 | 0.13 | 0.13 | 94 | 1043.2 |
| 20260509062919 | 7 | 266 | 1.6 | 1.6 | 0.00 | 0.10 | 0.10 | 94 | 1043.5 |
| 20260509062416 | 7 | 268 | 0.0 | 0.0 | 0.13 | 0.10 | 0.10 | 94 | 1043.4 |
| 20260509061914 | 7 | 257 | 1.6 | 3.2 | 0.13 | 0.10 | 0.10 | 94 | 1043.5 |
| 20260509061412 | 7 | 271 | 0.0 | 1.6 | 0.00 | 0.08 | 0.08 | 93 | 1043.3 |
| 20260509060908 | 7 | 266 | 0.0 | 3.2 | 0.18 | 0.08 | 0.08 | 93 | 1043.4 |
| 20260509060405 | 7 | 259 | 3.2 | 4.8 | 0.18 | 0.08 | 0.08 | 92 | 1043.5 |
| 20260509055900 | 7 | 215 | 4.8 | 4.8 | 0.00 | 0.05 | 0.05 | 91 | 1043.5 |
| 20260509055356 | 7 | 287 | 0.0 | 0.0 | 0.13 | 0.05 | 0.05 | 91 | 1042.9 |
| 20260509054853 | 7 | 302 | 3.2 | 4.8 | 0.13 | 0.05 | 0.05 | 90 | 1043.0 |
| 20260509054350 | 7 | 301 | 0.0 | 1.6 | 0.00 | 0.03 | 0.03 | 90 | 1043.0 |
| 20260509053848 | 7 | 310 | 4.8 | 6.4 | 0.00 | 0.03 | 0.03 | 91 | 1042.8 |
| 20260509053345 | 7 | 301 | 3.2 | 9.7 | 0.00 | 0.03 | 0.03 | 91 | 1042.6 |
| 20260509052843 | 7 | 330 | 8.0 | 9.7 | 0.00 | 0.03 | 0.03 | 91 | 1042.6 |
| 20260509052340 | 7 | 329 | 6.4 | 6.4 | 0.00 | 0.03 | 0.03 | 91 | 1042.7 |
| 20260509051838 | 7 | 298 | 0.0 | 0.0 | 0.00 | 0.03 | 0.03 | 90 | 1042.9 |
| 20260509051336 | 7 | 294 | 0.0 | 1.6 | 0.00 | 0.03 | 0.03 | 90 | 1043.1 |
| 20260509050832 | 7 | 331 | 0.0 | 3.2 | 0.00 | 0.03 | 0.03 | 91 | 1043.1 |
| 20260509050329 | 7 | 298 | 1.6 | 1.6 | 0.18 | 0.03 | 0.03 | 91 | 1042.8 |
| 20260509045826 | 7 | 302 | 3.2 | 9.7 | 0.18 | 0.03 | 0.03 | 91 | 1042.7 |